| time (UTC) | temp C | wind direction | speed KPH | gust KPH | rain 1hr cm | rain 24hr cm | rain mn cm | humidity % | barometer mb |
| 20260505051607 | 6 | 190 | 4.8 | 16.1 | 0.00 | 2.31 | 0.00 | 86 | 1004.9 |
| 20260505041532 | 6 | 269 | 6.4 | 16.1 | 0.00 | 2.31 | 0.00 | 85 | 1004.1 |
| 20260505040027 | 6 | 212 | 4.8 | 11.3 | 0.00 | 2.31 | 0.00 | 85 | 1003.9 |
| 20260505034522 | 7 | 252 | 1.6 | 14.5 | 0.00 | 2.31 | 0.00 | 85 | 1003.8 |
| 20260505033018 | 6 | 252 | 8.0 | 16.1 | 0.00 | 2.31 | 0.00 | 86 | 1003.5 |
| 20260505031516 | 6 | 223 | 0.0 | 6.4 | 0.03 | 2.31 | 0.00 | 87 | 1003.5 |
| 20260505030016 | 6 | 150 | 1.6 | 12.9 | 0.03 | 2.31 | 0.00 | 87 | 1003.5 |
| 20260505024510 | 6 | 223 | 0.0 | 9.7 | 0.03 | 2.31 | 2.31 | 86 | 1003.2 |
| 20260505023005 | 7 | 260 | 3.2 | 11.3 | 0.03 | 2.31 | 2.31 | 83 | 1003.0 |
| 20260505021511 | 8 | 228 | 8.0 | 17.7 | 0.00 | 2.29 | 2.29 | 79 | 1003.0 |
| 20260505020108 | 8 | 225 | 4.8 | 17.7 | 0.00 | 2.29 | 2.29 | 80 | 1002.5 |
| 20260505014558 | 8 | 171 | 8.0 | 22.5 | 0.00 | 2.31 | 2.29 | 77 | 1002.4 |
| 20260505013104 | 8 | 212 | 11.3 | 25.7 | 0.00 | 2.31 | 2.29 | 77 | 1002.2 |
| 20260505011554 | 8 | 213 | 6.4 | 25.7 | 0.00 | 2.31 | 2.29 | 75 | 1002.1 |
| 20260505010108 | 9 | 219 | 11.3 | 22.5 | 0.00 | 2.31 | 2.29 | 73 | 1002.0 |
| 20260505004549 | 8 | 190 | 6.4 | 14.5 | 0.00 | 2.34 | 2.29 | 74 | 1001.8 |
| 20260505003046 | 8 | 203 | 8.0 | 16.1 | 0.00 | 2.34 | 2.29 | 71 | 1001.9 |
| 20260505001543 | 9 | 228 | 11.3 | 22.5 | 0.00 | 2.34 | 2.29 | 68 | 1001.7 |
| 20260505000044 | 9 | 169 | 8.0 | 25.7 | 0.00 | 2.34 | 2.29 | 67 | 1001.3 |
| 20260504234535 | 8 | 153 | 8.0 | 27.4 | 0.00 | 2.57 | 2.29 | 71 | 1001.0 |
| 20260504233038 | 4 | 216 | 4.8 | 11.3 | 0.00 | 2.57 | 2.29 | 86 | 1000.8 |
| 20260504231630 | 3 | 323 | 0.0 | 4.8 | 0.00 | 2.57 | 2.29 | 87 | 1000.6 |
| 20260504230027 | 3 | 324 | 1.6 | 6.4 | 0.00 | 2.57 | 2.29 | 87 | 1000.6 |
| 20260504224524 | 4 | 292 | 0.0 | 4.8 | 0.00 | 2.79 | 2.29 | 86 | 1000.5 |
| 20260504223022 | 4 | 292 | 1.6 | 6.4 | 0.00 | 2.79 | 2.29 | 86 | 1000.3 |
| 20260504221519 | 5 | 292 | 0.0 | 6.4 | 0.00 | 2.79 | 2.29 | 84 | 1000.3 |
| 20260504220016 | 5 | 5 | 1.6 | 9.7 | 0.00 | 2.79 | 2.29 | 84 | 1000.0 |
| 20260504214512 | 6 | 23 | 3.2 | 9.7 | 0.00 | 3.05 | 2.29 | 81 | 999.9 |
| 20260504213016 | 7 | 5 | 4.8 | 8.0 | 0.00 | 3.05 | 2.29 | 78 | 999.7 |
| 20260504211509 | 8 | 308 | 4.8 | 9.7 | 0.00 | 3.05 | 2.29 | 74 | 999.5 |
| 20260504210005 | 9 | 51 | 3.2 | 6.4 | 0.00 | 3.05 | 2.29 | 70 | 999.3 |
| 20260504204503 | 9 | 225 | 1.6 | 11.3 | 0.00 | 3.15 | 2.29 | 73 | 999.2 |
| 20260504203108 | 8 | 239 | 1.6 | 8.0 | 0.00 | 3.15 | 2.29 | 73 | 999.0 |
| 20260504201555 | 8 | 234 | 8.0 | 17.7 | 0.00 | 3.15 | 2.29 | 72 | 998.9 |
| 20260504200051 | 9 | 17 | 1.6 | 12.9 | 0.00 | 3.15 | 2.29 | 77 | 998.4 |
| 20260504194545 | 8 | 190 | 1.6 | 9.7 | 0.00 | 3.35 | 2.29 | 80 | 998.1 |
| 20260504193041 | 7 | 241 | 3.2 | 14.5 | 0.00 | 3.35 | 2.29 | 81 | 998.0 |
| 20260504191537 | 7 | 215 | 6.4 | 12.9 | 0.00 | 3.35 | 2.29 | 83 | 997.9 |
| 20260504190035 | 6 | 227 | 4.8 | 14.5 | 0.00 | 3.35 | 2.29 | 85 | 997.8 |
| 20260504184530 | 6 | 196 | 4.8 | 16.1 | 0.00 | 3.35 | 2.29 | 86 | 997.5 |
| 20260504183030 | 6 | 202 | 9.7 | 22.5 | 0.00 | 3.35 | 2.29 | 86 | 997.5 |
| 20260504181522 | 6 | 166 | 8.0 | 25.7 | 0.00 | 3.35 | 2.29 | 87 | 997.2 |
| 20260504180016 | 6 | 225 | 6.4 | 24.1 | 0.00 | 3.35 | 2.29 | 87 | 997.1 |
| 20260504174513 | 5 | 247 | 6.4 | 17.7 | 0.00 | 3.35 | 2.29 | 88 | 996.8 |
| 20260504173010 | 5 | 225 | 6.4 | 19.3 | 0.00 | 3.35 | 2.29 | 88 | 996.4 |
| 20260504171505 | 5 | 169 | 6.4 | 17.7 | 0.03 | 3.35 | 2.29 | 88 | 996.0 |
| 20260504081549 | 2 | 191 | 8.0 | 16.1 | 0.15 | 1.42 | 0.36 | 91 | 975.5 |